Wind_Speed
12 11 9 6 3 6 1 5 6 9 8 19 11 9 14 13 3 6 28 32 32 38 30 20 24 22 19 21 19 18 16 14 12 11 9 9 11 11 10 10 9 10 11 10 8 7 8 8 9
12 11 7 8 3 3 4 10 9 5 15 16 13 13 16 13 12 23 36 27 40 34 19 19 23 20 20 20 20 17 14 13 12 9 9 10 10 11 12 10 9 9 10 10 9 8 7 8 8
15 7 4 4 2 3 7 11 9 13 13 8 13 14 8 8 23 38 34 33 38 26 18 22 23 20 20 21 19 16 14 12 10 8 8 9 10 12 11 10 11 12 12 11 10 9 7 6 7
11 9 9 2 11 15 9 12 12 13 8 9 13 12 12 12 29 28 33 38 32 21 20 25 23 21 21 21 18 15 14 12 10 8 8 8 10 11 10 11 12 13 14 13 12 11 10 8 6
15 14 9 6 8 7 14 10 12 13 11 12 15 11 15 16 24 36 34 31 24 24 23 26 23 22 22 19 16 15 13 11 9 8 8 8 9 9 9 11 12 13 15 16 15 13 10 8 8
9 12 2 4 15 10 12 7 7 14 10 13 18 18 9 19 30 33 30 28 23 24 24 23 24 23 21 18 16 14 13 11 9 9 9 8 9 9 9 10 12 12 13 12 13 12 10 10 8
17 12 14 21 14 15 11 4 7 13 10 16 18 16 17 27 31 33 27 25 24 25 25 22 23 24 20 18 16 14 13 11 10 10 10 9 8 8 9 10 11 11 11 10 11 12 12 12 12
15 12 12 15 8 18 9 12 7 12 19 16 17 9 24 29 33 30 27 24 24 27 23 23 21 19 16 16 15 14 13 11 10 9 9 10 10 9 10 9 9 9 9 9 8 9 11 12 10
14 12 9 2 15 17 12 14 10 12 17 11 5 23 30 31 33 30 26 26 28 25 24 23 21 19 16 14 15 14 12 10 9 7 9 10 6 6 4 5 6 7 7 8 8 9 7 3 11
16 2 7 1 11 12 13 18 11 13 14 13 21 27 31 34 31 30 28 26 23 27 26 24 21 19 17 13 14 10 9 7 6 6 4 6 6 4 6 3 5 5 8 9 8 6 6 8 12
18 7 25 6 6 3 16 17 11 17 12 16 24 32 35 35 30 29 27 26 25 27 26 24 22 19 17 15 12 9 8 8 5 2 6 6 7 4 1 3 3 2 1 7 5 12 7 13 6
17 12 24 8 4 3 8 18 14 9 18 18 21 31 35 34 33 30 29 28 26 26 25 24 22 20 18 15 13 11 10 9 7 6 6 3 4 2 4 6 4 5 6 2 4 3 5 11 4
19 17 11 4 5 5 3 3 13 14 16 19 23 30 33 31 29 28 28 28 27 27 26 24 23 21 19 16 14 12 11 10 8 6 7 4 1 1 5 4 1 2 2 1 5 3 3 6 4
17 20 11 13 12 10 11 7 9 15 17 22 27 29 32 31 29 28 28 28 28 27 26 25 23 21 20 19 15 13 13 10 10 7 7 9 5 4 3 5 3 1 3 4 3 1 3 2 4
23 12 17 16 15 9 10 10 14 18 19 24 26 28 30 31 29 29 29 29 29 27 26 25 23 22 22 20 17 15 13 11 10 9 10 9 7 6 6 1 2 4 4 2 2 4 4 5 1
19 21 17 20 17 18 13 16 18 20 25 25 26 27 30 31 31 29 29 29 29 27 27 26 24 23 22 20 18 16 14 13 11 10 8 9 9 9 2 5 5 2 2 1 2 1 5 3 1
18 18 22 20 23 17 15 15 14 21 28 26 27 27 29 31 31 31 30 29 29 29 28 27 25 24 23 21 18 17 15 14 12 11 10 11 10 8 4 3 3 2 5 0 2 4 1 2 2
22 23 23 23 15 19 18 19 16 22 22 26 28 28 29 31 34 33 31 30 29 29 28 27 26 25 25 21 20 17 17 16 14 13 12 13 11 9 7 4 4 3 2 2 2 1 2 3 1
21 21 23 24 14 21 18 20 17 16 17 24 28 29 31 31 30 32 31 30 30 29 29 30 30 29 26 24 21 20 19 17 16 15 15 15 13 10 9 6 6 2 3 3 0 1 3 2 4
27 24 23 20 14 16 15 15 14 15 18 23 27 29 30 28 29 31 32 33 33 32 32 32 32 32 32 25 23 21 19 17 16 15 16 16 13 12 11 10 12 4 6 4 3 5 4 2 4
28 27 20 19 19 15 15 16 16 12 17 22 26 28 30 33 34 34 34 35 34 34 35 34 35 34 32 26 24 23 20 20 18 17 17 16 15 14 14 12 11 9 8 8 4 3 5 2 4
28 26 23 21 20 18 20 16 21 17 18 19 25 27 30 31 32 34 35 36 37 36 35 34 36 36 33 33 25 26 24 22 20 18 17 17 16 15 14 13 11 14 7 7 5 5 6 4 3
26 21 25 23 19 19 23 17 17 27 25 24 21 29 29 32 33 35 37 37 37 35 35 35 36 35 32 33 32 28 28 22 18 18 19 21 19 16 16 15 13 14 10 11 12 8 6 5 5
22 19 21 24 20 21 25 21 19 17 19 24 26 27 29 30 33 35 35 33 33 33 33 33 37 39 37 35 35 33 29 26 21 21 19 19 19 16 21 19 19 16 12 11 9 11 9 9 7
20 21 13 17 18 20 25 24 21 20 21 20 21 29 28 28 34 34 34 35 35 37 37 37 38 40 39 39 36 40 36 31 26 24 22 19 19 19 21 21 23 19 16 14 14 13 11 11 10
27 26 15 23 19 18 25 28 25 25 16 18 26 30 30 28 32 35 37 37 39 41 43 41 41 41 42 42 42 39 40 32 31 28 23 22 20 19 19 23 21 22 18 18 18 14 12 13 13
23 27 27 23 23 16 21 29 25 20 27 18 15 29 27 30 30 35 38 40 40 42 45 47 46 46 46 46 44 43 41 41 34 32 30 24 23 20 22 21 20 22 23 22 20 17 18 16 17
29 23 23 17 23 19 18 17 18 23 17 25 24 21 30 29 31 35 37 39 40 42 45 48 49 49 48 48 47 46 44 43 42 37 36 30 28 26 20 25 23 21 22 24 23 20 19 20 18
25 22 26 21 18 15 12 12 17 20 22 20 21 34 30 28 31 33 35 38 39 38 39 44 47 47 48 49 50 48 47 47 45 45 43 39 34 33 30 26 26 25 26 26 26 25 20 24 23
26 29 27 17 24 18 14 3 9 18 15 19 23 26 32 29 33 32 32 31 35 38 39 41 43 44 47 45 49 51 50 48 48 47 46 45 43 40 37 33 34 29 27 28 30 28 25 28 26
Wind_Direction
154 155 181 208 239 226 243 104 34 65 86 93 122 93 91 62 44 129 150 138 162 153 147 141 147 143 139 140 137 135 133 129 119 115 108 95 84 85 85 79 71 74 75 79 92 97 88 79 68
166 178 204 265 258 308 119 100 82 136 94 111 99 118 84 90 103 135 147 149 159 151 148 153 150 144 141 140 142 138 134 127 125 119 110 96 85 89 91 85 74 74 73 70 74 80 85 79 68
180 204 242 238 207 201 76 127 113 94 110 112 100 110 73 91 124 140 145 155 158 153 154 162 151 149 145 145 144 143 136 130 125 120 112 102 97 97 88 80 71 77 79 80 81 83 85 86 70
179 224 245 312 260 84 85 87 123 121 120 105 112 80 95 125 137 149 148 157 153 156 153 159 154 154 151 146 147 145 136 136 131 121 115 106 102 108 98 87 84 84 84 84 86 87 82 82 87
222 256 257 282 134 77 92 99 123 153 138 116 108 103 110 136 135 145 151 145 163 149 158 159 158 159 153 151 151 144 144 137 126 124 128 113 105 100 95 88 93 92 88 87 84 82 81 78 85
237 245 134 273 97 92 96 124 103 68 74 100 107 116 119 140 146 150 146 152 151 153 157 162 162 160 157 157 153 148 149 136 126 129 119 113 101 99 96 97 100 100 94 90 83 76 77 80 75
256 268 229 226 94 103 99 97 82 102 121 110 131 115 135 143 149 151 154 152 152 152 159 159 159 161 162 160 155 155 153 140 131 126 120 109 95 94 93 100 105 103 91 86 75 79 74 72 69
282 282 271 59 107 106 110 81 94 116 95 126 126 133 148 149 151 154 153 152 156 159 164 161 162 158 156 160 160 161 155 148 138 134 117 102 89 78 78 95 104 103 98 81 81 77 75 72 57
245 263 286 213 10 118 139 111 72 94 130 130 80 138 149 150 152 155 155 161 166 163 164 165 165 163 163 163 167 163 159 154 140 133 124 101 107 85 66 136 127 111 107 103 90 83 78 97 78
239 242 282 81 175 119 123 110 127 134 146 119 117 131 148 154 157 159 161 167 174 168 168 169 171 170 168 168 179 162 165 162 152 172 131 118 112 159 153 120 114 99 107 107 85 102 44 22 54
233 199 248 95 22 225 134 124 144 127 161 145 137 150 156 161 165 165 167 168 170 170 172 174 174 175 173 173 178 172 178 179 183 195 191 107 195 157 360 133 200 80 77 105 0 47 70 60 89
244 244 256 108 114 333 125 141 125 176 139 148 149 160 163 168 171 169 173 175 178 176 178 179 180 180 180 181 182 181 183 180 189 197 198 175 186 142 150 63 66 257 110 35 57 19 26 77 71
228 265 217 231 210 210 347 133 175 133 140 147 154 165 172 173 175 175 177 179 181 182 184 184 185 186 187 186 189 189 189 185 188 205 211 199 244 216 220 134 28 37 32 67 54 52 63 139 69
217 246 217 229 212 199 212 176 209 145 158 153 160 170 176 179 179 179 182 182 184 186 188 188 190 193 190 192 193 196 195 198 195 205 221 206 182 195 164 185 176 233 318 80 103 213 114 3 348
242 236 227 239 237 224 221 215 206 159 167 162 168 171 179 185 185 185 186 186 186 188 190 191 193 197 196 198 200 196 202 197 207 201 211 199 187 238 179 194 233 206 309 345 209 352 244 135 186
221 235 230 216 210 218 217 212 197 178 169 174 174 176 179 186 188 189 190 190 189 189 192 194 196 200 201 201 207 203 202 206 207 210 218 208 202 203 171 203 207 243 34 36 247 243 353 50 91
211 222 221 225 204 214 202 246 163 179 173 181 182 181 183 185 191 191 192 192 193 192 193 196 197 200 202 201 204 206 209 208 210 211 210 234 211 215 199 287 197 314 104 172 19 2 6 61 184
214 214 211 224 181 217 192 236 173 176 186 185 185 184 188 188 193 193 193 195 195 195 195 196 198 199 203 204 203 210 210 212 209 212 210 224 219 219 233 231 271 265 333 206 116 150 134 117 194
236 214 235 202 185 197 223 203 224 169 181 191 184 188 191 193 192 193 194 195 195 197 197 198 197 201 202 202 207 208 211 214 213 212 212 217 214 225 232 223 250 255 180 265 98 130 77 130 145
234 243 221 228 211 211 218 240 242 179 184 194 186 192 193 191 189 193 195 196 198 198 200 201 200 202 204 204 206 211 212 216 217 216 218 214 218 225 229 209 240 227 231 222 194 195 158 165 179
225 229 231 234 219 206 234 245 235 203 181 195 194 197 195 192 190 191 195 199 200 200 201 203 204 203 208 199 207 209 212 212 219 216 218 224 221 225 225 232 210 224 208 249 162 193 204 137 183
222 221 233 235 235 221 208 233 213 226 186 195 199 195 198 197 196 191 195 198 201 203 204 205 210 206 209 204 207 210 210 213 214 217 216 219 223 217 224 224 221 216 202 233 234 231 201 200 183
228 222 220 239 247 251 244 228 241 198 206 191 200 197 202 194 196 194 197 199 201 202 204 205 209 210 205 213 201 214 213 216 217 215 213 216 227 218 217 227 229 223 203 222 214 222 215 225 191
219 231 232 218 231 236 233 236 232 236 214 189 195 205 195 200 199 199 198 197 199 202 204 205 207 216 211 213 212 205 217 206 213 212 212 215 218 228 216 219 225 227 203 212 229 220 236 197 216
205 210 207 221 217 231 224 233 235 230 223 204 206 196 195 196 195 199 195 195 196 198 201 203 208 214 215 211 217 211 211 213 207 212 212 214 218 221 231 228 226 228 221 207 221 237 219 235 219
203 212 217 213 217 227 228 228 226 234 251 230 205 201 195 193 198 198 198 197 196 197 198 201 206 216 216 215 218 219 219 216 213 213 211 215 216 222 222 235 236 226 221 223 223 223 226 230 228
192 218 219 236 217 238 215 220 240 232 219 215 227 203 200 187 193 198 199 200 199 198 200 202 203 215 216 216 218 220 220 220 215 214 220 214 217 217 219 220 231 217 216 221 218 220 236 215 236
230 205 215 235 245 230 231 228 210 210 221 212 207 213 206 196 188 197 199 201 202 204 205 204 205 211 218 216 220 222 224 225 223 220 218 220 217 219 220 221 218 215 216 216 221 223 221 233 226
206 218 211 228 233 242 234 227 227 199 207 215 212 209 213 203 188 197 199 203 205 206 207 209 210 210 216 220 221 223 227 229 230 228 231 227 226 220 216 225 231 221 215 219 223 216 221 242 233
211 216 201 220 220 238 260 200 12 195 193 191 211 211 210 199 191 197 198 202 204 207 209 211 212 214 215 216 220 225 228 230 232 232 230 235 234 234 230 224 232 233 225 221 226 229 219 230 236
Height
1509 1511 1514 1514 1515 1493 1481 1478 1481 1478 1481 1482 1489 1490 1496 1500 1506 1522 1522 1527 1533 1536 1540 1543 1546 1548 1550 1552 1554 1557 1559 1561 1562 1564 1565 1565 1565 1566 1566 1566 1566 1567 1566 1567 1567 1567 1567 1568 1568
1512 1513 1513 1508 1503 1507 1479 1479 1482 1479 1479 1485 1488 1493 1497 1508 1510 1516 1524 1529 1536 1540 1546 1547 1548 1550 1552 1554 1557 1559 1561 1563 1564 1566 1567 1567 1567 1568 1569 1568 1568 1569 1569 1568 1568 1569 1569 1569 1569
1510 1510 1511 1495 1486 1509 1481 1480 1472 1478 1483 1487 1489 1499 1504 1511 1516 1518 1526 1532 1537 1542 1547 1548 1550 1552 1555 1557 1560 1562 1564 1565 1566 1567 1568 1569 1570 1570 1570 1571 1571 1571 1571 1571 1570 1570 1571 1571 1571
1511 1510 1507 1503 1491 1463 1469 1469 1474 1479 1485 1487 1492 1501 1510 1514 1518 1523 1529 1534 1539 1545 1549 1549 1552 1554 1557 1559 1562 1564 1566 1567 1569 1569 1570 1571 1572 1572 1572 1573 1573 1573 1573 1573 1572 1573 1573 1573 1573
1507 1500 1484 1486 1467 1465 1466 1471 1473 1480 1482 1487 1495 1505 1515 1520 1522 1528 1531 1537 1542 1546 1551 1551 1554 1557 1559 1562 1564 1566 1568 1569 1570 1572 1573 1573 1574 1574 1575 1575 1575 1575 1575 1575 1575 1575 1574 1574 1574
1504 1490 1506 1493 1463 1463 1467 1470 1470 1476 1483 1490 1498 1507 1517 1520 1525 1531 1535 1541 1545 1548 1552 1553 1555 1559 1561 1564 1566 1568 1570 1571 1572 1574 1574 1575 1576 1576 1576 1577 1577 1577 1578 1578 1577 1577 1576 1577 1577
1496 1479 1487 1488 1461 1468 1468 1471 1474 1478 1484 1490 1498 1506 1517 1522 1527 1533 1538 1542 1546 1550 1554 1556 1558 1560 1563 1565 1567 1570 1572 1573 1574 1575 1576 1577 1577 1578 1579 1579 1579 1579 1580 1580 1579 1579 1579 1579 1579
1494 1476 1462 1462 1473 1468 1471 1472 1477 1479 1487 1495 1499 1507 1516 1522 1529 1534 1539 1544 1548 1551 1555 1559 1561 1563 1566 1567 1569 1571 1573 1575 1576 1577 1578 1579 1580 1580 1580 1581 1581 1582 1581 1581 1580 1580 1580 1580 1580
1490 1481 1479 1464 1484 1462 1469 1474 1481 1486 1493 1496 1499 1505 1516 1524 1530 1535 1540 1544 1547 1552 1557 1560 1563 1566 1568 1570 1570 1573 1574 1576 1577 1578 1579 1579 1581 1582 1582 1582 1582 1582 1582 1582 1581 1581 1581 1581 1581
1484 1481 1490 1462 1461 1469 1464 1471 1482 1486 1492 1497 1499 1511 1519 1526 1531 1535 1540 1543 1547 1552 1556 1560 1564 1567 1570 1573 1572 1575 1577 1579 1580 1581 1580 1573 1582 1584 1584 1584 1583 1582 1582 1581 1582 1582 1580 1581 1581
1477 1484 1478 1463 1465 1461 1463 1472 1479 1484 1489 1496 1502 1512 1519 1525 1531 1536 1541 1545 1547 1551 1555 1559 1564 1567 1570 1573 1574 1577 1579 1581 1582 1580 1583 1582 1582 1584 1584 1584 1583 1582 1579 1581 1581 1582 1580 1580 1584
1477 1469 1467 1463 1469 1463 1461 1462 1476 1479 1483 1495 1503 1511 1517 1522 1527 1533 1539 1544 1547 1551 1555 1559 1563 1567 1570 1573 1576 1578 1580 1581 1582 1583 1582 1583 1583 1585 1585 1580 1583 1582 1582 1584 1585 1584 1584 1582 1584
1473 1469 1467 1469 1470 1469 1468 1466 1479 1476 1485 1494 1503 1511 1517 1522 1526 1531 1536 1541 1545 1550 1555 1558 1562 1566 1569 1572 1575 1577 1580 1581 1582 1582 1582 1583 1583 1584 1584 1586 1584 1585 1586 1585 1585 1585 1585 1584 1585
1468 1468 1465 1468 1467 1468 1471 1470 1475 1475 1485 1493 1501 1508 1514 1519 1524 1528 1532 1537 1542 1549 1553 1557 1561 1564 1568 1571 1574 1576 1579 1580 1581 1583 1583 1581 1583 1584 1585 1585 1586 1586 1585 1584 1586 1585 1585 1584 1584
1466 1467 1467 1466 1466 1465 1468 1468 1470 1471 1483 1491 1498 1504 1510 1516 1521 1525 1530 1535 1540 1546 1552 1556 1560 1563 1565 1569 1572 1575 1577 1579 1580 1582 1582 1582 1583 1584 1584 1586 1585 1586 1585 1585 1585 1584 1584 1582 1586
1468 1466 1468 1458 1462 1463 1466 1466 1460 1468 1479 1487 1494 1500 1506 1512 1517 1523 1528 1533 1538 1543 1548 1554 1557 1560 1563 1566 1569 1572 1575 1577 1579 1581 1582 1581 1581 1582 1583 1582 1584 1585 1586 1586 1586 1586 1583 1583 1585
1460 1466 1464 1455 1452 1455 1461 1460 1458 1462 1469 1480 1489 1496 1501 1507 1513 1519 1524 1530 1535 1540 1545 1550 1554 1558 1560 1563 1567 1569 1573 1575 1578 1579 1580 1579 1580 1581 1583 1584 1581 1584 1584 1586 1586 1585 1585 1585 1585
1459 1459 1447 1452 1444 1448 1453 1455 1453 1454 1462 1471 1482 1489 1496 1501 1507 1514 1520 1526 1532 1537 1542 1546 1551 1555 1558 1561 1564 1568 1570 1573 1575 1577 1579 1579 1579 1581 1581 1584 1584 1585 1581 1584 1584 1584 1584 1585 1584
1442 1443 1443 1434 1435 1445 1448 1447 1447 1448 1457 1465 1474 1481 1489 1495 1503 1510 1516 1522 1527 1533 1537 1541 1545 1549 1554 1557 1560 1564 1567 1570 1572 1574 1576 1577 1578 1579 1580 1582 1582 1583 1584 1584 1584 1584 1584 1585 1584
1446 1441 1438 1432 1431 1441 1441 1445 1438 1441 1451 1459 1466 1474 1481 1490 1497 1505 1511 1516 1521 1526 1531 1535 1539 1544 1548 1553 1557 1561 1564 1567 1569 1571 1573 1574 1576 1577 1579 1579 1580 1582 1582 1583 1584 1583 1584 1585 1585
1443 1441 1438 1438 1432 1436 1443 1448 1439 1437 1445 1453 1459 1467 1474 1479 1486 1496 1503 1509 1515 1521 1525 1529 1533 1538 1542 1549 1553 1557 1561 1563 1566 1568 1570 1571 1573 1575 1576 1577 1578 1578 1582 1580 1582 1583 1584 1585 1585
1440 1434 1437 1438 1438 1448 1436 1462 1441 1435 1439 1447 1452 1458 1464 1472 1480 1488 1495 1503 1508 1514 1520 1525 1527 1532 1537 1542 1548 1552 1555 1558 1561 1564 1567 1569 1569 1573 1575 1575 1576 1577 1580 1581 1582 1583 1584 1584 1585
1431 1428 1438 1440 1441 1441 1434 1444 1427 1422 1430 1435 1442 1448 1455 1463 1471 1478 1486 1493 1500 1508 1514 1520 1523 1528 1532 1535 1541 1546 1550 1554 1557 1560 1563 1565 1566 1568 1572 1573 1574 1574 1576 1579 1580 1581 1581 1583 1584
1425 1431 1431 1436 1442 1453 1438 1438 1429 1418 1417 1421 1430 1439 1446 1454 1463 1470 1479 1489 1496 1503 1510 1514 1517 1520 1526 1530 1535 1540 1544 1549 1553 1555 1558 1561 1564 1564 1567 1570 1571 1571 1574 1577 1578 1579 1580 1580 1583
1423 1432 1450 1453 1444 1444 1426 1434 1423 1406 1408 1412 1420 1428 1437 1447 1455 1464 1473 1480 1488 1495 1501 1507 1510 1514 1519 1524 1529 1533 1538 1543 1547 1551 1554 1557 1559 1561 1562 1564 1566 1568 1570 1573 1576 1576 1578 1577 1579
1415 1418 1427 1450 1441 1435 1419 1419 1410 1403 1402 1404 1412 1419 1428 1437 1446 1456 1464 1472 1478 1484 1491 1497 1502 1506 1511 1516 1521 1526 1531 1537 1541 1545 1549 1551 1554 1557 1559 1559 1562 1564 1568 1569 1572 1574 1574 1575 1575
1405 1411 1402 1409 1398 1408 1400 1400 1395 1390 1397 1405 1408 1413 1418 1427 1438 1447 1456 1463 1470 1477 1482 1486 1492 1496 1502 1506 1513 1518 1524 1528 1533 1538 1541 1546 1548 1551 1554 1556 1557 1559 1562 1565 1568 1570 1570 1572 1572
1386 1396 1418 1405 1423 1420 1396 1393 1398 1393 1394 1395 1404 1409 1413 1418 1429 1439 1447 1455 1462 1468 1473 1479 1485 1487 1492 1500 1505 1510 1515 1521 1526 1531 1534 1538 1543 1545 1549 1550 1553 1554 1557 1560 1562 1565 1567 1567 1569
1390 1390 1396 1396 1395 1408 1413 1395 1368 1375 1384 1393 1395 1403 1408 1412 1421 1431 1439 1446 1454 1462 1469 1473 1478 1483 1487 1492 1497 1503 1507 1512 1518 1522 1526 1531 1535 1539 1542 1543 1546 1548 1551 1554 1557 1560 1563 1562 1564
1373 1382 1385 1400 1406 1392 1386 1387 1363 1360 1373 1385 1394 1397 1402 1408 1415 1425 1432 1440 1447 1453 1460 1465 1471 1476 1479 1484 1489 1493 1498 1503 1507 1512 1518 1523 1526 1531 1534 1538 1540 1543 1546 1549 1551 1553 1557 1557 1558